Location: �chenoz-la-M�line
(47.6009°N, 6.1354°E)
Time: 04:09:56
(UTC+00:00)

H-2A R/B - Pass Details

Date: 27 January 2021
Orbit: 504 x 534 km, 97.3° (Epoch: 25 February)

Event Time Altitude Azimuth Distance (km) Brightness Sun altitude
Rises 05:22:25 0° 10° (N) 2,638 6.3 -17.8°
Reaches altitude 10° 05:24:31 10° 9° (N) 1,751 5.4 -17.4°
Maximum altitude 05:28:17 74° 285° (WNW) 546 2.5 -16.8°
Drops below altitude 10° 05:32:03 10° 200° (SSW) 1,754 5.3 -16.1°
Sets 05:34:09 0° 199° (SSW) 2,642 6.2 -15.8°
